Location: Avebury
(53.1487°N, 106.9774°W)
Time: 15:18:23
(UTC+00:00)

Envisat - Pass Details

Date: 22 January 2022
Orbit: 764 x 765 km, 98.2° (Epoch: 22 May)

Event Time Altitude Azimuth Distance (km) Brightness Sun altitude
Rises 13:24:01 0° 9° (N) 3,245 6.2 -14.9°
Reaches altitude 10° 13:26:32 10° 360° (N) 2,314 5.3 -14.5°
Maximum altitude 13:30:58 31° 299° (WNW) 1,316 3.7 -13.9°
Drops below altitude 10° 13:35:24 10° 238° (WSW) 2,302 5.1 -13.3°
Sets 13:37:54 0° 229° (SW) 3,224 5.9 -12.9°
